Regional Weather Roundup
Issued by NWS

Home | Current Version | Previous Version | Graphics & Text | Print | Product List | Glossary Off
Versions: 1 2 3 4 5 6 7 8 9 10 11 12 13 14 15 16 17 18 19 20 21 22 23 24 25 26 27 28 29 30 31 32 33 34 35 36 37 38 39 40 41 42 43 44 45 46 47 48 49 50

000
ASUS43 KTOP 031759
RWRKS

WEATHER ROUNDUP FOR KANSAS
NATIONAL WEATHER SERVICE GOODLAND KS
100 PM CDT MON AUG 03 2015

NOTE:  "FAIR" INDICATES FEW OR NO CLOUDS BELOW 12,000 FEET WITH NO
SIGNIFICANT WEATHER AND/OR OBSTRUCTIONS TO VISIBILITY.

KSZ001>006-013>018-027>032-041>047-031900-
NORTHWEST KANSAS

CITY           SKY/WX    TMP DP  RH WIND       PRES   REMARKS
GOODLAND       PTSUNNY   88  59  37 SE9       30.03S
6HR MIN TEMP:  61; 6HR MAX TEMP:  88;

HAYS           MOSUNNY   90  64  43 E8        29.95F
HILL CITY      MOSUNNY   90  68  48 E9        29.97F
6HR MIN TEMP:  64; 6HR MAX TEMP:  90;

RUSSELL        MOSUNNY   90  67  46 VRB7      29.94F
6HR MIN TEMP:  68; 6HR MAX TEMP:  91;

$$

KSZ061>065-074>080-084>089-031900-
SOUTHWEST KANSAS

CITY           SKY/WX    TMP DP  RH WIND       PRES   REMARKS
DODGE CITY     PTSUNNY   87  64  46 S16       29.99S
6HR MIN TEMP:  68; 6HR MAX TEMP:  87;

ELKHART          N/A     85  63  47 SE13        N/A
GARDEN CITY    MOSUNNY   86  67  52 SE12      29.98S
6HR MIN TEMP:  67; 6HR MAX TEMP:  86;

GREAT BEND     MOSUNNY   90  68  48 S9        29.93F
LIBERAL        MOSUNNY   86  64  48 S7          N/A
PRATT          PTSUNNY   86  63  45 CALM      29.97F
$$

KSZ066>073-081>083-090>101-031900-
SOUTHEAST KANSAS

CITY           SKY/WX    TMP DP  RH WIND       PRES   REMARKS
CHANUTE        MOSUNNY   91  65  41 SW7       29.94F
6HR MIN TEMP:  69; 6HR MAX TEMP:  91;

COFFEYVILLE    MOSUNNY   91  65  41 S12       29.94S
6HR MIN TEMP:  68; 6HR MAX TEMP:  92;

HUTCHINSON     MOSUNNY   90  69  50 SW8       29.94F
6HR MIN TEMP:  69; 6HR MAX TEMP:  90;

MEDICINE LODGE   N/A     86  70  58 S7        29.94F
NEWTON         MOSUNNY   88  70  55 W10       29.97F
PARSONS        MOSUNNY   93  67  42 SW8       29.95F HX  96
6HR MIN TEMP:  66; 6HR MAX TEMP:  93;

WICHITA INTL   PTSUNNY   89  70  53 SW10      29.93F
6HR MIN TEMP:  72; 6HR MAX TEMP:  89;

WICHITA JABRA  MOSUNNY   89  70  53 W9        29.94S
6HR MIN TEMP:  70; 6HR MAX TEMP:  89;

WINFIELD       MOSUNNY   89  71  55 W9        29.95F HX  95
6HR MIN TEMP:  72; 6HR MAX TEMP:  89;

$$

KSZ007>012-019>026-033>040-048>060-102>105-031900-
NORTHEAST KANSAS

CITY           SKY/WX    TMP DP  RH WIND       PRES   REMARKS
CONCORDIA      SUNNY     84  73  69 E10       29.94F
6HR MIN TEMP:  68; 6HR MAX TEMP:  84;

EMPORIA        SUNNY     90  68  48 W8        29.94F
6HR MIN TEMP:  69; 6HR MAX TEMP:  90;

LAWRENCE       MOSUNNY   90  70  51 NW5       29.94R HX  95
6HR MIN TEMP:  68; 6HR MAX TEMP:  90;

MANHATTAN      SUNNY     92  68  45 CALM      29.92F HX  96
6HR MIN TEMP:  70; 6HR MAX TEMP:  92;

OLATHE IND     SUNNY     89  68  49 W8        29.96R
6HR MIN TEMP:  69; 6HR MAX TEMP:  90;

OLATHE EXE     SUNNY     89  68  49 W9        29.96R
6HR MIN TEMP:  68; 6HR MAX TEMP:  90;

SALINA         SUNNY     91  70  49 CALM      29.93F HX  96
6HR MIN TEMP:  70; 6HR MAX TEMP:  91;

TOPEKA BILLARD MOSUNNY   90  70  51 VRB3      29.94R HX  95
6HR MIN TEMP:  72; 6HR MAX TEMP:  91;

TOPEKA FORBES  SUNNY     90  68  48 SW3       29.95R
6HR MIN TEMP:  71; 6HR MAX TEMP:  91;

$$



USA.gov is the U.S. government's official web portal to all federal, state and local government web resources and services.